Time,TemperatureF,DewpointF,PressureIn,WindDirection,WindDirectionDegrees,WindSpeedMPH,WindSpeedGustMPH,Humidity,HourlyPrecipIn,Conditions,Clouds,dailyrainin,SoftwareType,DateUTC
2013-01-01 00:08:00,30.4,22.0,29.80,South,171,1.0,-999.0,72,-99.99,,,0.00,weatherlink.com 1.10,2013-01-01 05:08:00,
2013-01-01 00:22:00,30.4,23.0,29.79,NW,313,0.0,-999.0,73,-99.99,,,0.00,weatherlink.com 1.10,2013-01-01 05:22:00,
2013-01-01 00:37:00,30.3,23.0,29.80,WSW,244,4.0,-999.0,75,-99.99,,,0.00,weatherlink.com 1.10,2013-01-01 05:37:00,
2013-01-01 00:52:00,30.3,24.0,29.80,West,269,1.0,-999.0,76,-99.99,,,0.00,weatherlink.com 1.10,2013-01-01 05:52:00,
2013-01-01 01:07:00,30.4,24.0,29.79,SSW,202,1.0,-999.0,77,-99.99,,,0.00,weatherlink.com 1.10,2013-01-01 06:07:00,
2013-01-01 01:22:00,30.4,24.0,29.80,WNW,301,0.0,-999.0,78,-99.99,,,0.00,weatherlink.com 1.10,2013-01-01 06:22:00,
2013-01-01 01:37:00,30.5,24.0,29.79,West,279,0.0,-999.0,78,-99.99,,,0.00,weatherlink.com 1.10,2013-01-01 06:37:00,
2013-01-01 01:52:00,30.6,25.0,29.79,West,277,0.0,-999.0,78,-99.99,,,0.00,weatherlink.com 1.10,2013-01-01 06:52:00,
2013-01-01 02:07:00,30.6,25.0,29.80,West,267,1.0,-999.0,79,-99.99,,,0.00,weatherlink.com 1.10,2013-01-01 07:07:00,
2013-01-01 02:22:00,30.8,25.0,29.80,WSW,252,2.0,-999.0,78,-99.99,,,0.00,weatherlink.com 1.10,2013-01-01 07:22:00,
2013-01-01 02:37:00,31.1,25.0,29.79,SW,224,0.0,-999.0,78,-99.99,,,0.00,weatherlink.com 1.10,2013-01-01 07:37:00,
2013-01-01 02:52:00,31.1,25.0,29.78,SW,215,0.0,-999.0,78,-99.99,,,0.00,weatherlink.com 1.10,2013-01-01 07:52:00,
2013-01-01 03:07:00,31.1,25.0,29.78,SW,229,3.0,-999.0,78,-99.99,,,0.00,weatherlink.com 1.10,2013-01-01 08:07:00,
2013-01-01 03:23:00,31.2,25.0,29.79,WNW,285,1.0,-999.0,78,-99.99,,,0.00,weatherlink.com 1.10,2013-01-01 08:23:00,
2013-01-01 03:37:00,31.1,25.0,29.79,West,261,2.0,-999.0,79,-99.99,,,0.00,weatherlink.com 1.10,2013-01-01 08:37:00,
2013-01-01 03:53:00,31.1,25.0,29.79,West,261,2.0,-999.0,79,-99.99,,,0.00,weatherlink.com 1.10,2013-01-01 08:53:00,
2013-01-01 04:08:00,31.2,25.0,29.79,WSW,254,0.0,-999.0,79,-99.99,,,0.00,weatherlink.com 1.10,2013-01-01 09:08:00,
2013-01-01 04:23:00,31.3,26.0,29.78,WNW,288,1.0,-999.0,79,-99.99,,,0.00,weatherlink.com 1.10,2013-01-01 09:23:00,
2013-01-01 04:38:00,31.4,26.0,29.79,West,272,1.0,-999.0,79,-99.99,,,0.00,weatherlink.com 1.10,2013-01-01 09:38:00,
2013-01-01 04:53:00,31.3,26.0,29.79,West,265,3.0,-999.0,79,-99.99,,,0.00,weatherlink.com 1.10,2013-01-01 09:53:00,
2013-01-01 05:08:00,31.4,26.0,29.79,SSW,211,1.0,-999.0,80,-99.99,,,0.00,weatherlink.com 1.10,2013-01-01 10:08:00,
2013-01-01 05:23:00,31.4,26.0,29.78,SSW,210,4.0,-999.0,80,-99.99,,,0.00,weatherlink.com 1.10,2013-01-01 10:23:00,
2013-01-01 05:38:00,31.5,26.0,29.78,WNW,283,1.0,-999.0,79,-99.99,,,0.00,weatherlink.com 1.10,2013-01-01 10:38:00,
2013-01-01 05:53:00,31.7,26.0,29.79,SW,231,0.0,-999.0,78,-99.99,,,0.00,weatherlink.com 1.10,2013-01-01 10:53:00,
2013-01-01 06:08:00,31.8,25.0,29.79,WSW,244,5.0,-999.0,77,-99.99,,,0.00,weatherlink.com 1.10,2013-01-01 11:08:00,
2013-01-01 06:23:00,32.1,25.0,29.80,SW,234,0.0,-999.0,74,-99.99,,,0.00,weatherlink.com 1.10,2013-01-01 11:23:00,
2013-01-01 06:38:00,32.2,24.0,29.80,NNW,329,6.0,-999.0,71,-99.99,,,0.00,weatherlink.com 1.10,2013-01-01 11:38:00,
2013-01-01 06:53:00,32.3,24.0,29.80,WNW,291,1.0,-999.0,70,-99.99,,,0.00,weatherlink.com 1.10,2013-01-01 11:53:00,
2013-01-01 07:08:00,32.2,24.0,29.81,WNW,298,1.0,-999.0,72,-99.99,,,0.00,weatherlink.com 1.10,2013-01-01 12:08:00,
2013-01-01 07:23:00,32.0,23.0,29.81,WNW,298,1.0,-999.0,70,-99.99,,,0.00,weatherlink.com 1.10,2013-01-01 12:23:00,
2013-01-01 07:38:00,31.8,23.0,29.81,West,262,0.0,-999.0,69,-99.99,,,0.00,weatherlink.com 1.10,2013-01-01 12:38:00,
2013-01-01 07:53:00,31.7,22.0,29.81,West,262,0.0,-999.0,68,-99.99,,,0.00,weatherlink.com 1.10,2013-01-01 12:53:00,
2013-01-01 08:08:00,31.7,22.0,29.81,WNW,286,0.0,-999.0,68,-99.99,,,0.00,weatherlink.com 1.10,2013-01-01 13:08:00,
2013-01-01 08:23:00,31.6,22.0,29.81,WNW,286,0.0,-999.0,67,-99.99,,,0.00,weatherlink.com 1.10,2013-01-01 13:23:00,
2013-01-01 08:38:00,31.6,24.0,29.82,North,355,4.0,-999.0,72,-99.99,,,0.00,weatherlink.com 1.10,2013-01-01 13:38:00,
2013-01-01 08:53:00,31.3,24.0,29.82,NNW,330,0.0,-999.0,74,-99.99,,,0.00,weatherlink.com 1.10,2013-01-01 13:53:00,
2013-01-01 09:08:00,31.3,24.0,29.82,NW,321,5.0,-999.0,74,-99.99,,,0.00,weatherlink.com 1.10,2013-01-01 14:08:00,
2013-01-01 09:23:00,31.1,24.0,29.83,WNW,290,1.0,-999.0,74,-99.99,,,0.00,weatherlink.com 1.10,2013-01-01 14:23:00,
2013-01-01 09:38:00,30.8,23.0,29.84,NW,316,3.0,-999.0,74,-99.99,,,0.00,weatherlink.com 1.10,2013-01-01 14:38:00,
2013-01-01 09:53:00,30.7,24.0,29.84,NW,311,2.0,-999.0,75,-99.99,,,0.00,weatherlink.com 1.10,2013-01-01 14:53:00,
2013-01-01 10:08:00,30.9,24.0,29.84,NW,322,5.0,-999.0,74,-99.99,,,0.00,weatherlink.com 1.10,2013-01-01 15:08:00,
2013-01-01 10:23:00,30.1,22.0,29.83,NNW,330,5.0,-999.0,73,-99.99,,,0.00,weatherlink.com 1.10,2013-01-01 15:23:00,
2013-01-01 10:38:00,29.5,22.0,29.84,NNW,346,7.0,-999.0,73,-99.99,,,0.00,weatherlink.com 1.10,2013-01-01 15:38:00,
2013-01-01 10:53:00,29.5,22.0,29.84,NNW,344,5.0,-999.0,73,-99.99,,,0.00,weatherlink.com 1.10,2013-01-01 15:53:00,
2013-01-01 11:08:00,30.1,22.0,29.84,NNW,346,9.0,-999.0,72,-99.99,,,0.00,weatherlink.com 1.10,2013-01-01 16:08:00,
2013-01-01 11:23:00,29.3,22.0,29.83,NW,326,3.0,-999.0,73,-99.99,,,0.00,weatherlink.com 1.10,2013-01-01 16:23:00,
2013-01-01 11:38:00,29.4,22.0,29.81,North,360,6.0,-999.0,73,-99.99,,,0.00,weatherlink.com 1.10,2013-01-01 16:38:00,
2013-01-01 11:53:00,29.2,22.0,29.81,WNW,302,3.0,-999.0,73,-99.99,,,0.00,weatherlink.com 1.10,2013-01-01 16:53:00,
2013-01-01 12:08:00,29.2,22.0,29.80,NW,322,4.0,-999.0,73,-99.99,,,0.00,weatherlink.com 1.10,2013-01-01 17:08:00,
2013-01-01 12:23:00,29.2,22.0,29.81,NNW,347,6.0,-999.0,73,-99.99,,,0.00,weatherlink.com 1.10,2013-01-01 17:23:00,
2013-01-01 12:38:00,29.1,22.0,29.80,NW,316,1.0,-999.0,74,-99.99,,,0.00,weatherlink.com 1.10,2013-01-01 17:38:00,
2013-01-01 12:53:00,28.9,22.0,29.81,NNW,342,8.0,-999.0,74,-99.99,,,0.00,weatherlink.com 1.10,2013-01-01 17:53:00,
2013-01-01 13:08:00,27.9,21.0,29.80,North,355,6.0,-999.0,75,-99.99,,,0.00,weatherlink.com 1.10,2013-01-01 18:08:00,
2013-01-01 13:23:00,27.8,21.0,29.81,NW,318,5.0,-999.0,75,-99.99,,,0.00,weatherlink.com 1.10,2013-01-01 18:23:00,
2013-01-01 13:38:00,27.3,20.0,29.81,NNW,343,9.0,-999.0,75,-99.99,,,0.00,weatherlink.com 1.10,2013-01-01 18:38:00,
2013-01-01 13:53:00,26.8,20.0,29.81,North,349,8.0,-999.0,74,-99.99,,,0.00,weatherlink.com 1.10,2013-01-01 18:53:00,
2013-01-01 14:08:00,26.2,19.0,29.81,North,360,7.0,-999.0,74,-99.99,,,0.00,weatherlink.com 1.10,2013-01-01 19:08:00,
2013-01-01 14:23:00,26.2,19.0,29.80,North,360,12.0,-999.0,73,-99.99,,,0.00,weatherlink.com 1.10,2013-01-01 19:23:00,
2013-01-01 14:38:00,26.0,18.0,29.80,NNW,339,5.0,-999.0,72,-99.99,,,0.00,weatherlink.com 1.10,2013-01-01 19:38:00,
2013-01-01 14:53:00,26.0,18.0,29.80,North,351,4.0,-999.0,72,-99.99,,,0.00,weatherlink.com 1.10,2013-01-01 19:53:00,
2013-01-01 15:08:00,25.8,18.0,29.81,NW,324,6.0,-999.0,71,-99.99,,,0.00,weatherlink.com 1.10,2013-01-01 20:08:00,
2013-01-01 15:23:00,25.6,17.0,29.82,NNW,342,3.0,-999.0,71,-99.99,,,0.00,weatherlink.com 1.10,2013-01-01 20:23:00,
2013-01-01 15:38:00,25.4,17.0,29.83,NNW,334,8.0,-999.0,70,-99.99,,,0.00,weatherlink.com 1.10,2013-01-01 20:38:00,
2013-01-01 15:54:00,25.1,16.0,29.82,NNW,327,4.0,-999.0,69,-99.99,,,0.00,weatherlink.com 1.10,2013-01-01 20:54:00,
2013-01-01 16:09:00,24.8,16.0,29.83,NNW,328,2.0,-999.0,69,-99.99,,,0.00,weatherlink.com 1.10,2013-01-01 21:09:00,
2013-01-01 16:24:00,24.7,15.0,29.83,NW,307,4.0,-999.0,68,-99.99,,,0.00,weatherlink.com 1.10,2013-01-01 21:24:00,
2013-01-01 16:39:00,24.8,15.0,29.84,NNW,333,4.0,-999.0,65,-99.99,,,0.00,weatherlink.com 1.10,2013-01-01 21:39:00,
2013-01-01 16:54:00,24.8,14.0,29.85,NW,326,4.0,-999.0,64,-99.99,,,0.00,weatherlink.com 1.10,2013-01-01 21:54:00,
2013-01-01 17:09:00,24.6,13.0,29.85,NW,325,3.0,-999.0,62,-99.99,,,0.00,weatherlink.com 1.10,2013-01-01 22:09:00,
2013-01-01 17:24:00,24.3,13.0,29.85,WNW,285,1.0,-999.0,62,-99.99,,,0.00,weatherlink.com 1.10,2013-01-01 22:24:00,
2013-01-01 17:39:00,23.9,12.0,29.87,NW,306,0.0,-999.0,62,-99.99,,,0.00,weatherlink.com 1.10,2013-01-01 22:39:00,
2013-01-01 17:54:00,23.5,13.0,29.88,WNW,294,3.0,-999.0,63,-99.99,,,0.00,weatherlink.com 1.10,2013-01-01 22:54:00,
2013-01-01 18:09:00,23.0,13.0,29.88,NNW,337,2.0,-999.0,65,-99.99,,,0.00,weatherlink.com 1.10,2013-01-01 23:09:00,
2013-01-01 18:24:00,22.3,12.0,29.90,NNW,339,6.0,-999.0,64,-99.99,,,0.00,weatherlink.com 1.10,2013-01-01 23:24:00,
2013-01-01 18:39:00,21.8,12.0,29.91,NW,316,7.0,-999.0,65,-99.99,,,0.00,weatherlink.com 1.10,2013-01-01 23:39:00,
2013-01-01 19:09:00,20.6,11.0,29.91,NNW,327,5.0,-999.0,66,-99.99,,,0.00,weatherlink.com 1.10,2013-01-02 00:09:00,
2013-01-01 19:24:00,20.3,11.0,29.92,West,279,5.0,-999.0,67,-99.99,,,0.00,weatherlink.com 1.10,2013-01-02 00:24:00,
2013-01-01 19:54:00,19.6,10.0,29.91,NW,308,1.0,-999.0,67,-99.99,,,0.00,weatherlink.com 1.10,2013-01-02 00:54:00,
2013-01-01 20:09:00,19.0,10.0,29.91,NW,306,6.0,-999.0,67,-99.99,,,0.00,weatherlink.com 1.10,2013-01-02 01:09:00,
2013-01-01 20:24:00,18.5,8.0,29.91,North,355,7.0,-999.0,65,-99.99,,,0.00,weatherlink.com 1.10,2013-01-02 01:24:00,
2013-01-01 20:43:00,18.2,8.0,29.90,NNW,339,10.0,-999.0,64,-99.99,,,0.00,weatherlink.com 1.10,2013-01-02 01:43:00,
2013-01-01 20:54:00,17.7,8.0,29.90,WNW,296,5.0,-999.0,65,-99.99,,,0.00,weatherlink.com 1.10,2013-01-02 01:54:00,
2013-01-01 21:09:00,17.3,8.0,29.92,NW,317,6.0,-999.0,66,-99.99,,,0.00,weatherlink.com 1.10,2013-01-02 02:09:00,
2013-01-01 21:24:00,16.8,7.0,29.92,NNW,327,3.0,-999.0,66,-99.99,,,0.00,weatherlink.com 1.10,2013-01-02 02:24:00,
2013-01-01 21:39:00,16.4,7.0,29.92,WNW,290,5.0,-999.0,67,-99.99,,,0.00,weatherlink.com 1.10,2013-01-02 02:39:00,
2013-01-01 21:54:00,16.0,7.0,29.92,NW,321,0.0,-999.0,67,-99.99,,,0.00,weatherlink.com 1.10,2013-01-02 02:54:00,
2013-01-01 22:10:00,15.5,7.0,29.93,WNW,299,1.0,-999.0,68,-99.99,,,0.00,weatherlink.com 1.10,2013-01-02 03:10:00,
2013-01-01 22:25:00,15.2,6.0,29.94,NW,308,0.0,-999.0,68,-99.99,,,0.00,weatherlink.com 1.10,2013-01-02 03:25:00,
2013-01-01 22:40:00,13.9,5.0,29.94,NW,326,1.0,-999.0,69,-99.99,,,0.00,weatherlink.com 1.10,2013-01-02 03:40:00,
2013-01-01 22:55:00,12.8,5.0,29.93,NW,326,0.0,-999.0,72,-99.99,,,0.00,weatherlink.com 1.10,2013-01-02 03:55:00,
2013-01-01 23:10:00,11.6,5.0,29.94,NW,326,0.0,-999.0,73,-99.99,,,0.00,weatherlink.com 1.10,2013-01-02 04:10:00,
2013-01-01 23:25:00,10.4,4.0,29.94,NW,326,0.0,-999.0,75,-99.99,,,0.00,weatherlink.com 1.10,2013-01-02 04:25:00,
2013-01-01 23:40:00,9.4,3.0,29.95,NW,326,0.0,-999.0,76,-99.99,,,0.00,weatherlink.com 1.10,2013-01-02 04:40:00,
2013-01-01 23:55:00,8.5,3.0,29.94,NW,326,0.0,-999.0,78,-99.99,,,0.00,weatherlink.com 1.10,2013-01-02 04:55:00,